813  
ASUS41 KGYX 171110  
RWRGYX  
WEATHER ROUNDUP FOR MAINE AND NEW HAMPSHIRE  
NATIONAL WEATHER SERVICE GRAY ME  
700 AM EDT THU AUG 17 2017  
 
MEZ002-005-006-010-012-015-018-020-021-024-026-027-029-171200-  
MAINE  
 
CITY SKY/WX TMP DP RH WIND PRES REMARKS
 
PORTLAND MOSUNNY 55 47 74 W3 30.03R  
SANFORD MOSUNNY 52 49 89 CALM 30.04R  
BAR HARBOR SUNNY 56 48 74 W3 29.96R  
WISCASSET SUNNY 52 50 93 CALM 30.02R  
ROCKLAND SUNNY 50 48 93 W3 29.99R  
FRYEBURG SUNNY 60 49 66 W7 30.02S  
LEWISTONAUBURN SUNNY 50 47 89 CALM 30.01R  
AUGUSTA SUNNY 57 47 69 W3 30.00R  
WATERVILLE SUNNY 53 49 86 SW5 29.96R  
BANGOR PTSUNNY 54 46 74 W7 29.96R  
GREENVILLE N/A 53 46 77 NW12 29.93R  
MILLINOCKET SUNNY 55 47 74 CALM 29.92S  
HOULTON SUNNY 55 45 68 W8 29.85S  
PRESQUE ISLE SUNNY 53 43 68 W9 29.84S  
FRENCHVILLE MOSUNNY 53 41 63 W13 29.79F  
CARIBOU SUNNY 52 44 74 SW8 29.81S  

 
 
NHZ002-005-008-009-011-012-014-171200-  
NEW HAMPSHIRE  
 
CITY SKY/WX TMP DP RH WIND PRES REMARKS
 
PORTSMOUTH PTSUNNY 57 51 79 W7 30.03R  
ROCHESTER CLOUDY 56 48 74 NW6 30.04R  
NASHUA CLOUDY 53 51 93 CALM 30.07R  
MANCHESTER PTSUNNY 54 48 80 S3 30.05R  
CONCORD SUNNY 50 47 89 CALM 30.07R  
LACONIA SUNNY 52 49 89 CALM 30.06R  
PLYMOUTH FAIR 46 45 96 CALM 30.06S  
BERLIN PTSUNNY 57 46 66 CALM 30.03R  
WHITEFIELD CLOUDY 45 42 89 CALM 30.05S  
JAFFREY CLOUDY 50 50 100 CALM 30.09R  
KEENE N/A N/A N/A N/A MISG N/A  
LEBANON FOG 50 49 96 CALM 30.08R VSB 1/4  
MT WASHINGTON FOG 37 37 100 NW60G70 N/A VSB 0  

 
 
VTZ005-007-008-171200-  
VERMONT  
 
CITY SKY/WX TMP DP RH WIND PRES REMARKS
 
ST JOHNSBURY N/A 48 48 100 MISG 30.05R  
MONTPELIER CLOUDY 48 48 100 CALM 30.10R  
BURLINGTON CLOUDY 53 50 89 E3 30.05S  

 
 
MAZ007-012-024-CTZ003-RIZ002-NYZ038-NYZ072-171200-  
SOUTHERN NEW ENGLAND AND NY  
 
CITY SKY/WX TMP DP RH WIND PRES REMARKS
 
BOSTON PTSUNNY 66 48 52 W6 30.06R  
WORCESTER SUNNY 57 47 69 NW6 30.09R  
NANTUCKET MOSUNNY 66 61 84 N6 30.04R  
PROVIDENCE PTSUNNY 61 53 75 NW3 30.07R  
HARTFORD MOCLDY 59 55 87 CALM 30.07R  
ALBANY MOCLDY 53 51 93 NE3 30.09S  
NEW YORK CITY MOCLDY 71 57 61 NE8 30.05R  

 
 
ANZ081-ANZ082-ANZ150-NHZ014-MEZ023>029-171200-  
COASTAL MARINE OBSERVATIONS  
 
STATION/POSITION TIME TEMP WIND PRES WAVE
 
AIR SEA DIR/SP/G HT/PER  
(UTC) (F) (DEG/KT/KT) (MB) (FT/S)  
MOUNT DESERT ROC 1100 57 1014.9R  
MATINICUS ROCK 1000 59 270/ 15/ 15 1014.6R  
ISLE OF SHOALS 1000 59 260/ 9/ 10 1016.5R  
JEFFREYS LEDGE 1006 66 N/A 3/11  
CASHES LEDGE BUO 0950 65 67 1015.4 4/12  
GEORGES BANK BUO 0950 64 64 1015.0 4/ 9  

 
   
............KEY...........
 
 
WCI - WIND CHILL  
TC - TEMPERATURE IN CELSIUS  
VSB - VISIBILITY
IN MILES  
HX - HEAT INDEX  
FAIR- INDICATES FEW OR NO CLOUDS BELOW 12,000 FT, WITH NO  
SIGNIFICANT WEATHER AND/OR S TO VISIBILITY.  
 
 
 
CLICK HERE TO GO TO PREVIOUS BULLETINS.

The Nexlab ME Page
The Nexlab NH Page Main Text Page